User: anonymous   Login
Location: Unspecified
(0.0000°N, 0.0000°E)
Time: 07:39:30
(UTC+00:00)
Language:

DNEPR OBJECT AB - Orbit

View from above orbital plane
View from above orbital plane
View from above satellite
View from above satellite

Ground track
Ground track

The orbit data is extracted from the following two-line orbital elements,

1 39441U 13066AB  17289.50791765 +.00000214 +00000-0 +37875-4 0  9995
2 39441 097.6185 312.5671 0080557 270.7736 088.4244 14.74677957208705
Epoch (UTC): 16 October 2017 12:11:24
Eccentricity: 0.0080557
inclination: 97.6185°
perigee height: 589 km
apogee height: 703 km
right ascension of ascending node: 312.5671°
argument of perigee: 270.7736°
revolutions per day: 14.74677957
mean anomaly at epoch: 88.4244°
orbit number at epoch: 20870

The dashed part of the orbit path shows where the satellite is in the earth's shadow,  

DLR